This is the latest recevied weather packets stored in our database for station/object KC3ULW-13. If no packets are shown the sender has not sent any weather packets the latest 10 day(s).
| Time | Temp. | Humidity | Pressure | Rain* | Wind** | Luminosity | Snow |
|---|---|---|---|---|---|---|---|
| 1777929902 | 23.89° C | 45% | 1009.8 hPa | 0 mm | - | 326 W/m² | - |
| 1777927481 | 23.89° C | 44% | 1009.6 hPa | 0 mm | - | 468 W/m² | - |
| 1777926573 | 23.89° C | 43% | 1009.6 hPa | 0 mm | - | 439 W/m² | - |
| 1777925664 | 23.89° C | 46% | 1009.6 hPa | 0 mm | - | 538 W/m² | - |
| 1777925058 | 23.33° C | 45% | 1009.6 hPa | 0 mm | - | 587 W/m² | - |
| 1777924147 | 23.33° C | 44% | 1009.9 hPa | 0 mm | - | 598 W/m² | - |
| 1777923843 | 23.89° C | 43% | 1010 hPa | 0 mm | - | 617 W/m² | - |
| 1777923539 | 23.33° C | 44% | 1010.2 hPa | 0 mm | - | 613 W/m² | - |
| 1777923236 | 23.89° C | 44% | 1009.9 hPa | 0 mm | - | 618 W/m² | - |
| 1777922935 | 23.33° C | 44% | 1010.3 hPa | 0 mm | - | 650 W/m² | - |
| 1777922632 | 22.78° C | 45% | 1009.9 hPa | 0 mm | - | 619 W/m² | - |
| 1777922330 | 23.33° C | 44% | 1010.3 hPa | 0 mm | - | 611 W/m² | - |
| 1777921723 | 22.22° C | 45% | 1010.1 hPa | 0 mm | - | 721 W/m² | - |
| 1777921419 | 22.78° C | 45% | 1010.1 hPa | 0 mm | - | 711 W/m² | - |
| 1777919901 | 23.33° C | 43% | 1010.6 hPa | 0 mm | - | 725 W/m² | - |
| 1777919598 | 22.78° C | 44% | 1010.5 hPa | 0 mm | - | 264 W/m² | - |
| 1777919296 | 22.22° C | 45% | 1010.7 hPa | 0 mm | - | 304 W/m² | - |
| 1777918994 | 22.78° C | 43% | 1010.8 hPa | 0 mm | - | 393 W/m² | - |
| 1777918690 | 22.78° C | 45% | 1010.7 hPa | 0 mm | - | 557 W/m² | - |
| 1777918388 | 22.22° C | 44% | 1010.7 hPa | 0 mm | - | 674 W/m² | - |
| 1777918087 | 22.78° C | 44% | 1010.8 hPa | 0 mm | - | 690 W/m² | - |
| 1777917785 | 22.78° C | 43% | 1011.1 hPa | 0 mm | - | 371 W/m² | - |
| 1777917482 | 22.78° C | 45% | 1010.9 hPa | 0 mm | - | 706 W/m² | - |
| 1777916877 | 21.67° C | 45% | 1011.1 hPa | 0 mm | - | 701 W/m² | - |
| 1777916575 | 21.67° C | 46% | 1011.1 hPa | 0 mm | - | 682 W/m² | - |
* Rain latest hour (hover to see other rain measurements)
** Current wind speed in m/s (hover to see current wind gust speed)